Regional Weather Roundup
Issued by NWS Charleston, SC

Current Version | Previous Version | Graphics & Text | Print | Product List | Glossary On
Versions: 1 2 3 4 5 6 7 8 9 10 11 12 13 14 15 16 17 18 19 20 21 22 23 24 25 26 27 28 29 30 31 32 33 34 35 36 37 38 39 40 41 42 43 44 45 46 47 48 49 50
000
ASUS42 KCHS 060027
RWRCHS

REGIONAL WEATHER ROUNDUP
NATIONAL WEATHER SERVICE CHARLESTON SC
800 PM EDT SUN JUL 05 2015

NOTE: "FAIR" INDICATES FEW OR NO CLOUDS BELOW 12,000 FEET WITH NO
SIGNIFICANT WEATHER AND/OR OBSTRUCTIONS TO VISIBILITY.

NOT ALL STATIONS ARE QUALITY CONTROLLED BY THE NATIONAL
WEATHER SERVICE. USE DATA WITH CAUTION...ESPECIALLY
DEWPOINT OBSERVATIONS.

SCZ027-030-031-034>040-042>050-060100-
...SOUTHEAST SOUTH CAROLINA...

CITY           SKY/WX    TMP DP  RH WIND       PRES   REMARKS
N CHARLESTON   CLOUDY    81  72  74 SW12      30.11S
6HR MIN TEMP:  81; 6HR MAX TEMP:  90;

WATERFRONT PAR   N/A     82  75  79 SW8       30.09S
MOUNT PLEASANT LGT RAIN  82  73  74 S9        30.12S
JOHNS ISLAND   FAIR      82  73  74 S9G16     30.12S
PINOPOLIS      NOT AVBL
MONCKS CORNER  FAIR      81  73  78 SW6       30.11S
SUMMERVILLE    FAIR      73  73 100 CALM      30.12F
BEAUFORT MCAS  LGT RAIN  74  73  97 S3        30.13S
6HR MIN TEMP:  74; 6HR MAX TEMP:  81; 6HR PCP:  0.19;

BEAUFORT ARPT  LGT RAIN  73  72  94 CALM      30.12S
HILTON HEAD IS CLOUDY    75  72  88 SW3       30.14S
WALTERBORO     RAIN      73  70  88 CALM      30.13S
ALLENDALE      FAIR      73  73 100 S5        30.10F

...SOUTHERN MIDLANDS AND PEE DEE...

CITY           SKY/WX    TMP DP  RH WIND       PRES   REMARKS
GEORGETOWN     NOT AVBL
KINGSTREE      NOT AVBL
ORANGEBURG     LGT RAIN  73  69  87 S10       30.10F
6HR MIN TEMP:  72; 6HR MAX TEMP:  91; 6HR PCP:  1.56;

BARNWELL       FAIR      75  72  88 S7        30.11R
AIKEN          NOT AVBL
MANNING        HVY RAIN  79  72  78 SW6       30.10F
COLUMBIA       CLOUDY    76  69  79 SW10      30.10R
6HR MIN TEMP:  76; 6HR MAX TEMP:  92; 6HR PCP:  0.05;

SUMTER         MOCLDY    78  72  82 SW12      30.07F
6HR MIN TEMP:  77; 6HR MAX TEMP:  92; 6HR PCP: TRACE;

FLORENCE       MOCLDY    81  69  67 S10G20    30.09R
6HR MIN TEMP:  81; 6HR MAX TEMP:  93; 6HR PCP: TRACE;

MYRTLE BEACH   PTCLDY    82  73  74 SW12      30.13R
N MYRTLE BEACH CLOUDY    82  75  79 SW15      30.11R
6HR MIN TEMP:  82; 6HR MAX TEMP:  85; 6HR PCP: TRACE;


$$

GAZ063-065-086>088-099>101-113>116-118-119-134>141-150-060100-
...SOUTHEAST GEORGIA...

CITY           SKY/WX    TMP DP  RH WIND       PRES   REMARKS
SAVANNAH ARPT  CLOUDY    73  69  87 SW3       30.13S
6HR MIN TEMP:  71; 6HR MAX TEMP:  82; 6HR PCP:  1.56;

HUNTER AAF     CLOUDY    72  72 100 S2        30.11S
6HR MIN TEMP:  71; 6HR MAX TEMP:  90; 6HR PCP:  1.43;

FORT STEWART   CLOUDY    74  70  86 S2        30.11S
6HR MIN TEMP:  74; 6HR MAX TEMP:  92; 6HR PCP:  0.01;

STATESBORO     NOT AVBL
SYLVANIA       CLOUDY    75  74  96 SW3       30.13F
CLAXTON        FAIR      73  73 100 CALM      30.13F

...CSRA...CENTRAL AND FAR SOUTHEAST GEORGIA...

CITY           SKY/WX    TMP DP  RH WIND       PRES   REMARKS
THOMSON        PTCLDY    85  73  67 CALM      30.13S HX  91
AUGUSTA-BUSH   MOCLDY    78  69  73 S13       30.07F
6HR MIN TEMP:  78; 6HR MAX TEMP:  91; 6HR PCP:  0.03;

AUGUSTA-DANIEL MOCLDY    81  71  71 S7        30.09F
SWAINSBORO     FAIR      81  72  74 S6        30.12S
VIDALIA        RAIN      77  72  83 S7        30.14S
EASTMAN        FAIR      80  72  74 S6        30.14S
HAZLEHURST     FAIR      78  75  90 CALM      30.12F
ALMA           CLOUDY    75  72  90 SE7       30.15R
6HR MIN TEMP:  72; 6HR MAX TEMP:  84; 6HR PCP:  0.48;

WAYCROSS       CLOUDY    76  75  98 S6        30.13F
JESUP          FAIR      75  73  94 W5        30.14F
BAXLEY         LGT RAIN  77  73  88 CALM      30.13F
BRUNSWICK      CLOUDY    73  72  94 CALM      30.14F
SAINT SIMONS   CLOUDY    74  71  91 S5        30.13F
6HR MIN TEMP:  72; 6HR MAX TEMP:  86; 6HR PCP:  0.25;


$$

SCZ027-028-034-036>038-045-046-048>050-GAZ119-141-060100-
...LAKE AND SUPPLEMENTAL COASTAL OBSERVATIONS...

STATION/POSITION TIME  TEMP    WIND        PRES    WAVE   SWELL
                       AIR SEA DIR/SP/G            HT/PER HT/PER/DIR
                 (UTC) (F)     (DEG/KT/KT) (MB)    (FT/S) (FT/S/D)
UPR LAKE MARION  NOT AVBL
WINYAH BAY       2300   83     190/ 12     1018.0S
LAKE MURRAY      2300   79     200/  7/  8 1017.6R
ACE BASIN NERRS  2345   75        CALM     1020.0S
FORT PULASKI     0000   74 84  230/  5/  7 1020.6S
SAPELO ISLAND    0000   73     130/  4     1020.0F

$$

ANZ835-935-AMZ111-154-330-350-352-354-370-450-454-472-060100-
...C-MAN AND BUOY OBSERVATIONS...

STATION/POSITION TIME  TEMP    WIND        PRES    WAVE   SWELL
                       AIR SEA DIR/SP/G            HT/PER HT/PER/DIR
                 (UTC) (F)     (DEG/KT/KT) (MB)    (FT/S) (FT/S/D)
BUOY 41004       2350   82 83  200/ 16/ 19 1019.5R   3/ 8   2/ 8
BUOY 41008       2350   75 79  250/  8/ 10 1020.8F   2/ 8   2/100/ 8
FOLLY BEACH CMAN 0000   81     220/ 19/ 22 1020.1S
CAPERS NEARSHORE 2308   82     210/ 17/ 21 1020.1S
FRIPP NEARSHORE  2300   81     240/ 14/ 16 1019.8R


STATION/POSITION TIME  TEMP    WIND        PRES    WAVE   SWELL
                       AIR SEA DIR/SP/G            HT/PER HT/PER/DIR
                 (UTC) (F)     (DEG/KT/KT) (MB)    (FT/S) (FT/S/D)
5E ST. MARYS GA  2321      78                N/A     2/ 9
FRYING PAN BUOY  2350   81 80  210/ 14/ 17 1020.2R   3/ 5   2/100/ 9
BUOY 41025       2350   81 81  210/ 14/ 16 1019.7R   3/ 9   2/140/ 9
CAPE LOOKOUT NC  0000   81     200/ 11/ 14 1019.4R
BUOY 41002       2350   81 80  180/ 10/ 10 1021.9R   4/ 9   3/130/ 9
BUOY 41010       2320   82 84   70/  2/  4 1021.7R
ST AUGUSTINE FL  0000   71 74  170/  2/  2 1023.0S


$$



USA.gov is the U.S. government's official web portal to all federal, state and local government web resources and services.